Torrington, WY

7:44 PM MST on February 26, 2017 (GMT -0700)
Torrington Municipal

Weather History for KTOR - December, 2011

Change the Weather History Date:

Monday, December 19, 2011

  Actual Average Record
Temperature  
Mean Temperature 23 °F 26 °F  
Max Temperature 35 °F 39 °F 57 °F (2004)
Min Temperature 10 °F 14 °F -14 °F (1998)
Degree Days  
Heating Degree Days 42 39  
Month to date heating degree days 617 713  
Since 1 July heating degree days 2068 2296  
Cooling Degree Days 0 0  
Month to date cooling degree days 0 0  
Year to date cooling degree days 843 678  
Moisture  
Dew Point 17 °F    
Average Humidity 64    
Maximum Humidity 92    
Minimum Humidity 35    
Precipitation  
Precipitation 0.00 in 0.02 in 0.05 in (2010)
Month to date precipitation 0.05 0.25  
Year to date precipitation 16.47 14.09  
Sea Level Pressure  
Sea Level Pressure 30.23 in    
Wind  
Wind Speed 8 mph (NNE)    
Max Wind Speed 15 mph    
Max Gust Speed 18 mph    
Visibility 10 miles    
Events      
T = Trace of Precipitation, MM = Missing Value Source: NWS Daily Summary

Daily Weather History Graph

Daily Weather History Graph

Search for Another Location

Airport or City:

Trip Planner

Search our weather history database for the weather conditions in past years. The results will help you decide how hot, cold, wet, or windy it might be!

Date:

Astronomy

Dec. 19, 2011 Rise Set
Actual Time 7:20 AM MST 4:27 PM MST
Civil Twilight 6:48 AM MST 4:58 PM MST
Nautical Twilight 6:13 AM MST 5:34 PM MST
Astronomical Twilight 5:39 AM MST 6:08 PM MST
Moon 1:29 AM MST (12/19) 12:30 PM MST (12/19)
Length of Visible Light 10h 10m
Length of Day
9h 06m
Waning Crescent, 30% of the Moon is Illuminated
Dec 19
Waning Crescent
Dec 24
New
Dec 31
First Quarter
Jan 9
Full
Jan 16
Last Quarter

Hourly Weather History & Observations

Time (MST) Temp. Windchill Dew Point Humidity Pressure Visibility Wind Dir Wind Speed Gust Speed Precip Events Conditions
12:53 AM 28.0 °F 19.3 °F 19.0 °F 69% 30.01 in 10.0 mi NW 9.2 mph - N/A   Clear
1:53 AM 28.9 °F 19.8 °F 19.9 °F 69% 30.02 in 10.0 mi NNW 10.4 mph - N/A   Clear
2:53 AM 24.1 °F 16.0 °F 18.0 °F 77% 30.09 in 10.0 mi NNW 6.9 mph - N/A   Clear
3:17 AM 26.6 °F 16.8 °F 21.2 °F 80% 30.07 in 10.0 mi North 10.4 mph - N/A   Mostly Cloudy
3:53 AM 28.0 °F 18.6 °F 25.0 °F 88% 30.11 in 10.0 mi NNE 10.4 mph - N/A   Overcast
4:05 AM 28.4 °F 18.5 °F 26.6 °F 93% 30.09 in 10.0 mi NE 11.5 mph - N/A   Overcast
4:53 AM 28.0 °F 17.5 °F 25.0 °F 88% 30.15 in 10.0 mi NNE 12.7 mph - N/A   Overcast
5:53 AM 28.0 °F 19.3 °F 26.1 °F 92% 30.20 in 10.0 mi North 9.2 mph - N/A   Overcast
6:30 AM 28.4 °F 19.1 °F 24.8 °F 86% 30.18 in 10.0 mi NNE 10.4 mph - N/A   Overcast
6:53 AM 28.0 °F 18.6 °F 26.1 °F 92% 30.26 in 9.0 mi North 10.4 mph - N/A   Overcast
7:49 AM 28.4 °F 18.0 °F 24.8 °F 86% 30.18 in 10.0 mi North 12.7 mph - N/A   Overcast
7:53 AM 28.0 °F 17.5 °F 25.0 °F 88% 30.26 in 10.0 mi NNE 12.7 mph - N/A   Overcast
8:53 AM 30.0 °F 23.2 °F 21.9 °F 72% 30.33 in 10.0 mi NE 6.9 mph - N/A   Overcast
9:22 AM 30.2 °F 22.6 °F 21.2 °F 69% 30.26 in 10.0 mi NE 8.1 mph - N/A   Mostly Cloudy
9:53 AM 30.0 °F 21.7 °F 19.0 °F 64% 30.34 in 10.0 mi NNE 9.2 mph - N/A   Mostly Cloudy
10:53 AM 32.0 °F 23.0 °F 15.1 °F 50% 30.31 in 10.0 mi North 11.5 mph - N/A   Clear
11:53 AM 33.1 °F 24.4 °F 12.9 °F 43% 30.30 in 10.0 mi NNE 11.5 mph - N/A   Clear
12:53 PM 34.0 °F 27.2 °F 9.0 °F 35% 30.24 in 10.0 mi NNE 8.1 mph - N/A   Clear
1:53 PM 34.0 °F 26.0 °F 10.0 °F 37% 30.24 in 10.0 mi ENE 10.4 mph - N/A   Clear
2:53 PM 33.1 °F 27.7 °F 10.9 °F 40% 30.26 in 10.0 mi NE 5.8 mph - N/A   Clear
3:53 PM 30.0 °F 25.2 °F 10.9 °F 45% 30.29 in 10.0 mi ESE 4.6 mph - N/A   Clear
4:53 PM 27.0 °F 19.5 °F 10.0 °F 49% 30.32 in 10.0 mi ESE 6.9 mph - N/A   Clear
6:53 PM 18.0 °F 8.7 °F 8.1 °F 65% 30.34 in 10.0 mi ENE 6.9 mph - N/A   Clear
7:53 PM 21.9 °F - 10.9 °F 63% 30.32 in 10.0 mi Calm Calm - N/A   Mostly Cloudy
8:53 PM 19.9 °F - 10.0 °F 65% 30.30 in 10.0 mi Calm Calm - N/A   Mostly Cloudy
9:53 PM 15.1 °F - 8.1 °F 74% 30.29 in 10.0 mi Calm Calm - N/A   Clear
10:53 PM 12.9 °F 2.6 °F 7.0 °F 77% 30.28 in 10.0 mi East 6.9 mph - N/A   Clear
11:53 PM 10.9 °F 0.2 °F 6.1 °F 81% 30.27 in 10.0 mi ENE 6.9 mph - N/A   Clear